Data supplied by UK-AIR on 8/11/2015
All Data GMT hour ending 
Status: R =Ratified P=Provisional,P*=As supplied
,,Ballymena Ballykeel,,,,,,,,,,,,,,,,,,,,,,,
Date,time,"Sulphur dioxide",status,unit,"Black carbon",status,unit,"UV Particulate Matter",status,unit
 
01-01-2014,01:00,7.44520,R,ugm-3,2.70,R,ugm-3,4.50,R,ugm-3
01-01-2014,02:00,5.54088,R,ugm-3,0.70,R,ugm-3,0.80,R,ugm-3
01-01-2014,03:00,4.80426,R,ugm-3,0.50,R,ugm-3,0.30,R,ugm-3
01-01-2014,04:00,5.97372,R,ugm-3,1.00,R,ugm-3,0.30,R,ugm-3
01-01-2014,05:00,5.58390,R,ugm-3,0.40,R,ugm-3,0.20,R,ugm-3
01-01-2014,06:00,5.77814,R,ugm-3,0.30,R,ugm-3,0.20,R,ugm-3
01-01-2014,07:00,4.15500,R,ugm-3,0.40,R,ugm-3,0.10,R,ugm-3
01-01-2014,08:00,1.29785,R,ugm-3,0.20,R,ugm-3,-0.10,R,ugm-3
01-01-2014,09:00,0.97322,R,ugm-3,0.20,R,ugm-3,-0.10,R,ugm-3
01-01-2014,10:00,0.71445,R,ugm-3,0.20,R,ugm-3,-0.10,R,ugm-3
01-01-2014,11:00,0.84417,R,ugm-3,0.40,R,ugm-3,-0.10,R,ugm-3
01-01-2014,12:00,0.77964,R,ugm-3,0.30,R,ugm-3,0.00,R,ugm-3
01-01-2014,13:00,0.64926,R,ugm-3,0.30,R,ugm-3,0.10,R,ugm-3
01-01-2014,14:00,0.51888,R,ugm-3,0.40,R,ugm-3,0.00,R,ugm-3
01-01-2014,15:00,0.51888,R,ugm-3,0.50,R,ugm-3,0.00,R,ugm-3
01-01-2014,16:00,0.45435,R,ugm-3,0.30,R,ugm-3,0.00,R,ugm-3
01-01-2014,17:00,0.51888,R,ugm-3,0.40,R,ugm-3,0.10,R,ugm-3
01-01-2014,18:00,1.88259,R,ugm-3,1.00,R,ugm-3,1.10,R,ugm-3
01-01-2014,19:00,2.92100,R,ugm-3,3.40,R,ugm-3,2.70,R,ugm-3
01-01-2014,20:00,2.07750,R,ugm-3,1.90,R,ugm-3,1.80,R,ugm-3
01-01-2014,21:00,2.33694,R,ugm-3,2.20,R,ugm-3,1.90,R,ugm-3
01-01-2014,22:00,2.59704,R,ugm-3,1.70,R,ugm-3,1.60,R,ugm-3
01-01-2014,23:00,3.31083,R,ugm-3,2.00,R,ugm-3,2.60,R,ugm-3
01-01-2014,24:00,2.40279,R,ugm-3,1.60,R,ugm-3,1.20,R,ugm-3
02-01-2014,01:00,2.68396,R,ugm-3,0.50,R,ugm-3,0.90,R,ugm-3
02-01-2014,02:00,4.24148,R,ugm-3,0.40,R,ugm-3,0.60,R,ugm-3
02-01-2014,03:00,3.76584,R,ugm-3,0.30,R,ugm-3,0.40,R,ugm-3
02-01-2014,04:00,4.61001,R,ugm-3,0.70,R,ugm-3,0.20,R,ugm-3
02-01-2014,05:00,4.67454,R,ugm-3,0.40,R,ugm-3,0.30,R,ugm-3
02-01-2014,06:00,2.66157,R,ugm-3,0.30,R,ugm-3,0.30,R,ugm-3
02-01-2014,07:00,3.11724,R,ugm-3,0.80,R,ugm-3,0.10,R,ugm-3
02-01-2014,08:00,2.46732,R,ugm-3,0.30,R,ugm-3,0.10,R,ugm-3
02-01-2014,09:00,2.14203,R,ugm-3,0.60,R,ugm-3,0.50,R,ugm-3
02-01-2014,10:00,3.05139,R,ugm-3,1.40,R,ugm-3,0.90,R,ugm-3
02-01-2014,11:00,3.05139,R,ugm-3,1.40,R,ugm-3,1.20,R,ugm-3
02-01-2014,12:00,3.11680,R,ugm-3,1.80,R,ugm-3,0.90,R,ugm-3
02-01-2014,13:00,2.66157,R,ugm-3,2.20,R,ugm-3,1.10,R,ugm-3
02-01-2014,14:00,3.44054,R,ugm-3,1.30,R,ugm-3,1.70,R,ugm-3
02-01-2014,15:00,3.37602,R,ugm-3,3.40,R,ugm-3,3.50,R,ugm-3
02-01-2014,16:00,4.35057,R,ugm-3,3.70,R,ugm-3,2.60,R,ugm-3
02-01-2014,17:00,3.96008,R,ugm-3,2.00,R,ugm-3,0.70,R,ugm-3
02-01-2014,18:00,3.37602,R,ugm-3,1.60,R,ugm-3,0.50,R,ugm-3
02-01-2014,19:00,1.49410,R,ugm-3,1.00,R,ugm-3,0.50,R,ugm-3
02-01-2014,20:00,1.29852,R,ugm-3,1.40,R,ugm-3,0.60,R,ugm-3
02-01-2014,21:00,0.77898,R,ugm-3,0.60,R,ugm-3,0.40,R,ugm-3
02-01-2014,22:00,0.58407,R,ugm-3,0.40,R,ugm-3,0.10,R,ugm-3
02-01-2014,23:00,0.77964,R,ugm-3,0.20,R,ugm-3,0.20,R,ugm-3
02-01-2014,24:00,1.10294,R,ugm-3,0.20,R,ugm-3,0.40,R,ugm-3
03-01-2014,01:00,1.03775,R,ugm-3,0.40,R,ugm-3,0.30,R,ugm-3
03-01-2014,02:00,0.51888,R,ugm-3,0.10,R,ugm-3,0.10,R,ugm-3
03-01-2014,03:00,0.51888,R,ugm-3,0.10,R,ugm-3,0.00,R,ugm-3
03-01-2014,04:00,0.32530,R,ugm-3,0.20,R,ugm-3,0.00,R,ugm-3
03-01-2014,05:00,0.19558,R,ugm-3,0.10,R,ugm-3,0.00,R,ugm-3
03-01-2014,06:00,0.26077,R,ugm-3,0.30,R,ugm-3,0.70,R,ugm-3
03-01-2014,07:00,0.19558,R,ugm-3,0.20,R,ugm-3,0.10,R,ugm-3
03-01-2014,08:00,0.26077,R,ugm-3,0.20,R,ugm-3,0.00,R,ugm-3
03-01-2014,09:00,0.06519,R,ugm-3,0.10,R,ugm-3,0.10,R,ugm-3
03-01-2014,10:00,0.64859,R,ugm-3,0.60,R,ugm-3,1.40,R,ugm-3
03-01-2014,11:00,0.84218,R,ugm-3,0.70,R,ugm-3,1.10,R,ugm-3
03-01-2014,12:00,0.90737,R,ugm-3,0.60,R,ugm-3,0.80,R,ugm-3
03-01-2014,13:00,1.23266,R,ugm-3,1.60,R,ugm-3,0.90,R,ugm-3
03-01-2014,14:00,1.36305,R,ugm-3,1.10,R,ugm-3,0.70,R,ugm-3
03-01-2014,15:00,1.88126,R,ugm-3,1.50,R,ugm-3,1.70,R,ugm-3
03-01-2014,16:00,2.98287,R,ugm-3,2.00,R,ugm-3,2.30,R,ugm-3
03-01-2014,17:00,3.04740,R,ugm-3,2.60,R,ugm-3,3.60,R,ugm-3
03-01-2014,18:00,6.68152,R,ugm-3,2.10,R,ugm-3,3.20,R,ugm-3
03-01-2014,19:00,4.99451,R,ugm-3,1.90,R,ugm-3,2.70,R,ugm-3
03-01-2014,20:00,4.47563,R,ugm-3,1.70,R,ugm-3,1.90,R,ugm-3
03-01-2014,21:00,3.95609,R,ugm-3,1.80,R,ugm-3,1.60,R,ugm-3
03-01-2014,22:00,4.08581,R,ugm-3,1.80,R,ugm-3,2.60,R,ugm-3
03-01-2014,23:00,3.76185,R,ugm-3,1.20,R,ugm-3,1.20,R,ugm-3
03-01-2014,24:00,3.69666,R,ugm-3,0.90,R,ugm-3,0.60,R,ugm-3
04-01-2014,01:00,3.02633,R,ugm-3,0.30,R,ugm-3,0.40,R,ugm-3
04-01-2014,02:00,2.76734,R,ugm-3,0.10,R,ugm-3,0.10,R,ugm-3
04-01-2014,03:00,2.46466,R,ugm-3,0.10,R,ugm-3,0.00,R,ugm-3
04-01-2014,04:00,2.27108,R,ugm-3,0.30,R,ugm-3,0.10,R,ugm-3
04-01-2014,05:00,3.24297,R,ugm-3,0.20,R,ugm-3,0.00,R,ugm-3
04-01-2014,06:00,5.05970,R,ugm-3,0.70,R,ugm-3,0.20,R,ugm-3
04-01-2014,07:00,9.72958,R,ugm-3,0.50,R,ugm-3,0.10,R,ugm-3
04-01-2014,08:00,3.69666,R,ugm-3,1.30,R,ugm-3,0.30,R,ugm-3
04-01-2014,09:00,2.78862,R,ugm-3,0.50,R,ugm-3,0.10,R,ugm-3
04-01-2014,10:00,1.68568,R,ugm-3,1.30,R,ugm-3,0.10,R,ugm-3
04-01-2014,11:00,2.01164,R,ugm-3,1.10,R,ugm-3,0.80,R,ugm-3
04-01-2014,12:00,5.31914,R,ugm-3,1.50,R,ugm-3,1.70,R,ugm-3
04-01-2014,13:00,3.50174,R,ugm-3,2.30,R,ugm-3,1.60,R,ugm-3
04-01-2014,14:00,3.63213,R,ugm-3,3.60,R,ugm-3,2.80,R,ugm-3
04-01-2014,15:00,4.47563,R,ugm-3,3.40,R,ugm-3,4.90,R,ugm-3
04-01-2014,16:00,7.39331,R,ugm-3,3.70,R,ugm-3,5.20,R,ugm-3
04-01-2014,17:00,8.49692,R,ugm-3,6.30,R,ugm-3,4.80,R,ugm-3
04-01-2014,18:00,9.53467,R,ugm-3,5.70,R,ugm-3,8.60,R,ugm-3
04-01-2014,19:00,13.29585,R,ugm-3,7.10,R,ugm-3,13.10,R,ugm-3
04-01-2014,20:00,14.52918,R,ugm-3,9.60,R,ugm-3,10.50,R,ugm-3
04-01-2014,21:00,14.00964,R,ugm-3,11.40,R,ugm-3,12.70,R,ugm-3
04-01-2014,22:00,8.10776,R,ugm-3,3.70,R,ugm-3,3.90,R,ugm-3
04-01-2014,23:00,7.39398,R,ugm-3,3.00,R,ugm-3,2.50,R,ugm-3
04-01-2014,24:00,9.72958,R,ugm-3,2.50,R,ugm-3,1.60,R,ugm-3
05-01-2014,01:00,10.71190,R,ugm-3,2.80,R,ugm-3,5.20,R,ugm-3
05-01-2014,02:00,8.55302,R,ugm-3,1.40,R,ugm-3,2.80,R,ugm-3
05-01-2014,03:00,7.51638,R,ugm-3,1.50,R,ugm-3,1.10,R,ugm-3
05-01-2014,04:00,5.96108,R,ugm-3,0.80,R,ugm-3,0.50,R,ugm-3
05-01-2014,05:00,6.73806,R,ugm-3,0.40,R,ugm-3,0.30,R,ugm-3
05-01-2014,06:00,7.06203,R,ugm-3,0.70,R,ugm-3,0.30,R,ugm-3
05-01-2014,07:00,7.45119,R,ugm-3,0.80,R,ugm-3,0.60,R,ugm-3
05-01-2014,08:00,5.83136,R,ugm-3,0.60,R,ugm-3,0.20,R,ugm-3
05-01-2014,09:00,6.54448,R,ugm-3,0.60,R,ugm-3,0.30,R,ugm-3
05-01-2014,10:00,5.76684,R,ugm-3,0.30,R,ugm-3,0.10,R,ugm-3
05-01-2014,11:00,6.15599,R,ugm-3,0.50,R,ugm-3,-0.10,R,ugm-3
05-01-2014,12:00,4.98852,R,ugm-3,0.60,R,ugm-3,2.60,R,ugm-3
05-01-2014,13:00,2.72144,R,ugm-3,0.30,R,ugm-3,0.60,R,ugm-3
05-01-2014,14:00,2.59172,R,ugm-3,0.30,R,ugm-3,0.00,R,ugm-3
05-01-2014,15:00,3.17445,R,ugm-3,0.40,R,ugm-3,0.10,R,ugm-3
05-01-2014,16:00,3.11059,R,ugm-3,0.60,R,ugm-3,0.20,R,ugm-3
05-01-2014,17:00,3.62880,R,ugm-3,0.50,R,ugm-3,0.20,R,ugm-3
05-01-2014,18:00,5.18343,R,ugm-3,0.70,R,ugm-3,1.20,R,ugm-3
05-01-2014,19:00,4.85880,R,ugm-3,1.50,R,ugm-3,2.80,R,ugm-3
05-01-2014,20:00,4.27607,R,ugm-3,1.90,R,ugm-3,1.20,R,ugm-3
05-01-2014,21:00,4.08249,R,ugm-3,1.20,R,ugm-3,2.50,R,ugm-3
05-01-2014,22:00,3.95277,R,ugm-3,1.30,R,ugm-3,0.80,R,ugm-3
05-01-2014,23:00,3.75852,R,ugm-3,0.70,R,ugm-3,0.50,R,ugm-3
05-01-2014,24:00,2.98021,R,ugm-3,0.70,R,ugm-3,0.40,R,ugm-3
06-01-2014,01:00,2.67775,R,ugm-3,0.30,R,ugm-3,0.80,R,ugm-3
06-01-2014,02:00,2.33361,R,ugm-3,0.20,R,ugm-3,0.50,R,ugm-3
06-01-2014,03:00,2.98021,R,ugm-3,0.50,R,ugm-3,0.10,R,ugm-3
06-01-2014,04:00,3.82238,R,ugm-3,0.20,R,ugm-3,0.10,R,ugm-3
06-01-2014,05:00,3.88758,R,ugm-3,0.10,R,ugm-3,0.10,R,ugm-3
06-01-2014,06:00,3.56428,R,ugm-3,0.30,R,ugm-3,0.10,R,ugm-3
06-01-2014,07:00,3.62880,R,ugm-3,0.40,R,ugm-3,0.00,R,ugm-3
06-01-2014,08:00,3.17512,R,ugm-3,0.40,R,ugm-3,0.10,R,ugm-3
06-01-2014,09:00,2.98087,R,ugm-3,0.70,R,ugm-3,0.10,R,ugm-3
06-01-2014,10:00,2.91568,R,ugm-3,0.70,R,ugm-3,0.60,R,ugm-3
06-01-2014,11:00,5.70164,R,ugm-3,1.30,R,ugm-3,3.80,R,ugm-3
06-01-2014,12:00,2.13870,R,ugm-3,0.70,R,ugm-3,1.20,R,ugm-3
06-01-2014,13:00,1.61916,R,ugm-3,1.00,R,ugm-3,0.40,R,ugm-3
06-01-2014,14:00,1.87926,R,ugm-3,1.10,R,ugm-3,1.00,R,ugm-3
06-01-2014,15:00,2.33361,R,ugm-3,2.30,R,ugm-3,1.00,R,ugm-3
06-01-2014,16:00,2.26842,R,ugm-3,1.50,R,ugm-3,1.40,R,ugm-3
06-01-2014,17:00,2.72144,R,ugm-3,1.40,R,ugm-3,1.40,R,ugm-3
06-01-2014,18:00,3.56361,R,ugm-3,2.00,R,ugm-3,1.20,R,ugm-3
06-01-2014,19:00,2.85049,R,ugm-3,1.20,R,ugm-3,0.70,R,ugm-3
06-01-2014,20:00,3.43389,R,ugm-3,1.10,R,ugm-3,2.00,R,ugm-3
06-01-2014,21:00,2.98021,R,ugm-3,1.80,R,ugm-3,2.70,R,ugm-3
06-01-2014,22:00,2.46200,R,ugm-3,1.80,R,ugm-3,1.20,R,ugm-3
06-01-2014,23:00,1.81407,R,ugm-3,0.40,R,ugm-3,0.30,R,ugm-3
06-01-2014,24:00,1.29586,R,ugm-3,0.30,R,ugm-3,0.10,R,ugm-3
07-01-2014,01:00,1.20716,R,ugm-3,0.20,R,ugm-3,0.20,R,ugm-3
07-01-2014,02:00,0.86302,R,ugm-3,0.10,R,ugm-3,0.10,R,ugm-3
07-01-2014,03:00,0.84151,R,ugm-3,0.10,R,ugm-3,0.10,R,ugm-3
07-01-2014,04:00,0.51888,R,ugm-3,0.10,R,ugm-3,0.00,R,ugm-3
07-01-2014,05:00,0.58340,R,ugm-3,0.10,R,ugm-3,-0.10,R,ugm-3
07-01-2014,06:00,0.71246,R,ugm-3,0.10,R,ugm-3,0.10,R,ugm-3
07-01-2014,07:00,1.29453,R,ugm-3,0.10,R,ugm-3,0.00,R,ugm-3
07-01-2014,08:00,1.81207,R,ugm-3,0.30,R,ugm-3,-0.10,R,ugm-3
07-01-2014,09:00,2.78330,R,ugm-3,0.90,R,ugm-3,0.90,R,ugm-3
07-01-2014,10:00,1.68302,R,ugm-3,0.90,R,ugm-3,0.60,R,ugm-3
07-01-2014,11:00,1.81207,R,ugm-3,0.90,R,ugm-3,0.50,R,ugm-3
07-01-2014,12:00,1.74755,R,ugm-3,1.30,R,ugm-3,0.80,R,ugm-3
07-01-2014,13:00,2.07018,R,ugm-3,2.20,R,ugm-3,1.40,R,ugm-3
07-01-2014,14:00,2.26509,R,ugm-3,1.90,R,ugm-3,1.20,R,ugm-3
07-01-2014,15:00,2.97755,R,ugm-3,1.80,R,ugm-3,1.80,R,ugm-3
07-01-2014,16:00,2.71878,R,ugm-3,3.10,R,ugm-3,1.90,R,ugm-3
07-01-2014,17:00,4.07849,R,ugm-3,2.70,R,ugm-3,3.00,R,ugm-3
07-01-2014,18:00,5.76018,R,ugm-3,2.50,R,ugm-3,1.40,R,ugm-3
07-01-2014,19:00,5.11359,R,ugm-3,2.60,R,ugm-3,2.60,R,ugm-3
07-01-2014,20:00,5.17745,R,ugm-3,2.60,R,ugm-3,3.40,R,ugm-3
07-01-2014,21:00,3.94878,R,ugm-3,2.30,R,ugm-3,2.70,R,ugm-3
07-01-2014,22:00,3.36604,R,ugm-3,1.50,R,ugm-3,1.00,R,ugm-3
07-01-2014,23:00,2.65425,R,ugm-3,0.90,R,ugm-3,0.60,R,ugm-3
07-01-2014,24:00,2.26576,R,ugm-3,0.40,R,ugm-3,0.30,R,ugm-3
08-01-2014,01:00,2.07107,R,ugm-3,0.40,R,ugm-3,0.50,R,ugm-3
08-01-2014,02:00,1.46704,R,ugm-3,0.30,R,ugm-3,0.30,R,ugm-3
08-01-2014,03:00,0.71246,R,ugm-3,0.20,R,ugm-3,0.30,R,ugm-3
08-01-2014,04:00,0.51888,R,ugm-3,0.10,R,ugm-3,0.20,R,ugm-3
08-01-2014,05:00,2.58972,R,ugm-3,0.20,R,ugm-3,0.00,R,ugm-3
08-01-2014,06:00,1.23000,R,ugm-3,0.20,R,ugm-3,0.00,R,ugm-3
08-01-2014,07:00,0.97056,R,ugm-3,0.30,R,ugm-3,0.40,R,ugm-3
08-01-2014,08:00,1.22867,R,ugm-3,0.50,R,ugm-3,0.40,R,ugm-3
08-01-2014,09:00,2.00698,R,ugm-3,1.70,R,ugm-3,0.90,R,ugm-3
08-01-2014,10:00,1.87727,R,ugm-3,1.30,R,ugm-3,1.50,R,ugm-3
08-01-2014,11:00,2.26509,R,ugm-3,2.70,R,ugm-3,1.10,R,ugm-3
08-01-2014,12:00,2.26576,R,ugm-3,2.90,R,ugm-3,1.40,R,ugm-3
08-01-2014,13:00,2.13604,R,ugm-3,2.50,R,ugm-3,2.60,R,ugm-3
08-01-2014,14:00,2.00632,R,ugm-3,1.70,R,ugm-3,1.50,R,ugm-3
08-01-2014,15:00,4.98320,R,ugm-3,1.80,R,ugm-3,1.90,R,ugm-3
08-01-2014,16:00,7.96075,R,ugm-3,2.70,R,ugm-3,1.50,R,ugm-3
08-01-2014,17:00,12.36254,R,ugm-3,3.60,R,ugm-3,0.90,R,ugm-3
08-01-2014,18:00,14.75735,R,ugm-3,6.70,R,ugm-3,3.10,R,ugm-3
08-01-2014,19:00,8.34990,R,ugm-3,8.00,R,ugm-3,3.30,R,ugm-3
08-01-2014,20:00,6.01896,R,ugm-3,7.10,R,ugm-3,3.40,R,ugm-3
08-01-2014,21:00,8.09047,R,ugm-3,9.50,R,ugm-3,4.40,R,ugm-3
08-01-2014,22:00,3.56028,R,ugm-3,6.90,R,ugm-3,3.90,R,ugm-3
08-01-2014,23:00,5.50141,R,ugm-3,7.20,R,ugm-3,5.00,R,ugm-3
08-01-2014,24:00,2.58906,R,ugm-3,6.10,R,ugm-3,4.10,R,ugm-3
09-01-2014,01:00,1.63734,R,ugm-3,5.20,R,ugm-3,4.60,R,ugm-3
09-01-2014,02:00,3.79267,R,ugm-3,4.60,R,ugm-3,3.80,R,ugm-3
09-01-2014,03:00,14.09678,R,ugm-3,3.80,R,ugm-3,1.70,R,ugm-3
09-01-2014,04:00,7.75918,R,ugm-3,2.80,R,ugm-3,1.50,R,ugm-3
09-01-2014,05:00,2.84517,R,ugm-3,1.70,R,ugm-3,0.80,R,ugm-3
09-01-2014,06:00,11.76783,R,ugm-3,1.30,R,ugm-3,0.70,R,ugm-3
09-01-2014,07:00,10.92765,R,ugm-3,2.90,R,ugm-3,1.10,R,ugm-3
09-01-2014,08:00,14.48394,R,ugm-3,8.70,R,ugm-3,1.30,R,ugm-3
09-01-2014,09:00,13.96640,R,ugm-3,6.10,R,ugm-3,9.20,R,ugm-3
09-01-2014,10:00,7.63013,R,ugm-3,5.30,R,ugm-3,4.00,R,ugm-3
09-01-2014,11:00,8.47031,R,ugm-3,3.40,R,ugm-3,0.80,R,ugm-3
09-01-2014,12:00,5.04374,R,ugm-3,2.70,R,ugm-3,2.20,R,ugm-3
09-01-2014,13:00,4.59072,R,ugm-3,2.40,R,ugm-3,1.30,R,ugm-3
09-01-2014,14:00,4.91468,R,ugm-3,4.30,R,ugm-3,3.10,R,ugm-3
09-01-2014,15:00,6.53051,R,ugm-3,2.80,R,ugm-3,2.20,R,ugm-3
09-01-2014,16:00,5.62581,R,ugm-3,2.80,R,ugm-3,5.10,R,ugm-3
09-01-2014,17:00,7.69532,R,ugm-3,4.40,R,ugm-3,5.50,R,ugm-3
09-01-2014,18:00,8.53550,R,ugm-3,5.30,R,ugm-3,5.30,R,ugm-3
09-01-2014,19:00,6.14269,R,ugm-3,5.00,R,ugm-3,5.10,R,ugm-3
09-01-2014,20:00,8.21220,R,ugm-3,7.00,R,ugm-3,3.70,R,ugm-3
09-01-2014,21:00,7.43589,R,ugm-3,2.10,R,ugm-3,1.60,R,ugm-3
09-01-2014,22:00,6.59504,R,ugm-3,2.20,R,ugm-3,1.50,R,ugm-3
09-01-2014,23:00,4.26742,R,ugm-3,1.50,R,ugm-3,0.80,R,ugm-3
09-01-2014,24:00,3.16780,R,ugm-3,1.20,R,ugm-3,0.60,R,ugm-3
10-01-2014,01:00,4.91380,R,ugm-3,1.30,R,ugm-3,2.20,R,ugm-3
10-01-2014,02:00,6.81013,R,ugm-3,1.10,R,ugm-3,2.70,R,ugm-3
10-01-2014,03:00,3.87959,R,ugm-3,0.50,R,ugm-3,0.40,R,ugm-3
10-01-2014,04:00,6.78929,R,ugm-3,0.60,R,ugm-3,0.60,R,ugm-3
10-01-2014,05:00,5.49609,R,ugm-3,0.50,R,ugm-3,0.30,R,ugm-3
10-01-2014,06:00,4.85016,R,ugm-3,0.60,R,ugm-3,0.30,R,ugm-3
10-01-2014,07:00,5.94844,R,ugm-3,0.60,R,ugm-3,0.80,R,ugm-3
10-01-2014,08:00,11.12123,R,ugm-3,1.30,R,ugm-3,1.30,R,ugm-3
10-01-2014,09:00,4.97854,R,ugm-3,1.40,R,ugm-3,2.10,R,ugm-3
10-01-2014,10:00,3.10328,R,ugm-3,1.50,R,ugm-3,0.80,R,ugm-3
10-01-2014,11:00,3.10328,R,ugm-3,2.20,R,ugm-3,1.20,R,ugm-3
10-01-2014,12:00,6.01363,R,ugm-3,3.90,R,ugm-3,2.40,R,ugm-3
10-01-2014,13:00,6.59504,R,ugm-3,3.50,R,ugm-3,2.00,R,ugm-3
10-01-2014,14:00,7.75918,R,ugm-3,3.70,R,ugm-3,2.00,R,ugm-3
10-01-2014,15:00,7.04806,R,ugm-3,3.40,R,ugm-3,3.10,R,ugm-3
10-01-2014,16:00,25.41160,R,ugm-3,6.90,R,ugm-3,3.10,R,ugm-3
10-01-2014,17:00,16.16497,R,ugm-3,6.70,R,ugm-3,2.60,R,ugm-3
10-01-2014,18:00,28.38515,R,ugm-3,7.20,R,ugm-3,2.10,R,ugm-3
10-01-2014,19:00,19.33343,R,ugm-3,6.40,R,ugm-3,2.30,R,ugm-3
10-01-2014,20:00,13.44952,R,ugm-3,12.70,R,ugm-3,7.10,R,ugm-3
10-01-2014,21:00,6.91834,R,ugm-3,15.50,R,ugm-3,9.30,R,ugm-3
10-01-2014,22:00,9.82870,R,ugm-3,12.20,R,ugm-3,9.00,R,ugm-3
10-01-2014,23:00,15.51903,R,ugm-3,8.70,R,ugm-3,5.00,R,ugm-3
10-01-2014,24:00,21.91916,R,ugm-3,7.30,R,ugm-3,20.30,R,ugm-3
11-01-2014,01:00,8.78452,R,ugm-3,3.40,R,ugm-3,3.00,R,ugm-3
11-01-2014,02:00,9.21558,R,ugm-3,2.80,R,ugm-3,2.10,R,ugm-3
11-01-2014,03:00,8.52685,R,ugm-3,1.30,R,ugm-3,0.70,R,ugm-3
11-01-2014,04:00,5.10294,R,ugm-3,1.10,R,ugm-3,1.00,R,ugm-3
11-01-2014,05:00,6.71744,R,ugm-3,0.60,R,ugm-3,0.50,R,ugm-3
11-01-2014,06:00,2.84184,R,ugm-3,0.60,R,ugm-3,0.40,R,ugm-3
11-01-2014,07:00,2.97090,R,ugm-3,0.80,R,ugm-3,1.40,R,ugm-3
11-01-2014,08:00,1.74489,R,ugm-3,0.20,R,ugm-3,0.20,R,ugm-3
11-01-2014,09:00,5.68435,R,ugm-3,1.20,R,ugm-3,0.30,R,ugm-3
11-01-2014,10:00,4.52153,R,ugm-3,2.20,R,ugm-3,1.40,R,ugm-3
11-01-2014,11:00,2.58373,R,ugm-3,2.80,R,ugm-3,1.30,R,ugm-3
11-01-2014,12:00,2.26110,R,ugm-3,2.30,R,ugm-3,2.20,R,ugm-3
11-01-2014,13:00,2.58373,R,ugm-3,3.20,R,ugm-3,2.70,R,ugm-3
11-01-2014,14:00,4.13371,R,ugm-3,2.60,R,ugm-3,1.50,R,ugm-3
11-01-2014,15:00,3.74588,R,ugm-3,2.90,R,ugm-3,1.50,R,ugm-3
11-01-2014,16:00,5.74954,R,ugm-3,2.10,R,ugm-3,1.60,R,ugm-3
11-01-2014,17:00,10.39946,R,ugm-3,4.00,R,ugm-3,5.20,R,ugm-3
11-01-2014,18:00,16.14834,R,ugm-3,4.30,R,ugm-3,5.60,R,ugm-3
11-01-2014,19:00,14.98552,R,ugm-3,7.00,R,ugm-3,10.20,R,ugm-3
11-01-2014,20:00,6.58839,R,ugm-3,10.20,R,ugm-3,5.90,R,ugm-3
11-01-2014,21:00,4.84483,R,ugm-3,8.80,R,ugm-3,6.40,R,ugm-3
11-01-2014,22:00,4.19824,R,ugm-3,7.00,R,ugm-3,4.60,R,ugm-3
11-01-2014,23:00,2.84184,R,ugm-3,5.90,R,ugm-3,3.80,R,ugm-3
11-01-2014,24:00,3.09995,R,ugm-3,5.50,R,ugm-3,3.90,R,ugm-3
12-01-2014,01:00,2.84184,R,ugm-3,2.00,R,ugm-3,1.40,R,ugm-3
12-01-2014,02:00,3.53101,R,ugm-3,1.10,R,ugm-3,1.20,R,ugm-3
12-01-2014,03:00,4.13371,R,ugm-3,0.60,R,ugm-3,0.80,R,ugm-3
12-01-2014,04:00,4.19824,R,ugm-3,0.30,R,ugm-3,0.20,R,ugm-3
12-01-2014,05:00,3.81041,R,ugm-3,0.10,R,ugm-3,0.10,R,ugm-3
12-01-2014,06:00,4.84483,R,ugm-3,0.20,R,ugm-3,0.10,R,ugm-3
12-01-2014,07:00,4.32729,R,ugm-3,0.20,R,ugm-3,0.00,R,ugm-3
12-01-2014,08:00,4.13371,R,ugm-3,0.20,R,ugm-3,0.10,R,ugm-3
12-01-2014,09:00,3.93946,R,ugm-3,0.20,R,ugm-3,0.10,R,ugm-3
12-01-2014,10:00,3.87494,R,ugm-3,0.30,R,ugm-3,0.10,R,ugm-3
12-01-2014,11:00,3.16448,R,ugm-3,0.40,R,ugm-3,0.20,R,ugm-3
12-01-2014,12:00,2.39015,R,ugm-3,0.50,R,ugm-3,0.30,R,ugm-3
12-01-2014,13:00,2.19657,R,ugm-3,0.50,R,ugm-3,0.20,R,ugm-3
12-01-2014,14:00,3.94013,R,ugm-3,0.70,R,ugm-3,0.50,R,ugm-3
12-01-2014,15:00,2.26110,R,ugm-3,1.40,R,ugm-3,1.60,R,ugm-3
12-01-2014,16:00,1.68036,R,ugm-3,1.00,R,ugm-3,0.50,R,ugm-3
12-01-2014,17:00,1.42225,R,ugm-3,1.00,R,ugm-3,0.40,R,ugm-3
12-01-2014,18:00,1.03243,R,ugm-3,0.80,R,ugm-3,0.30,R,ugm-3
12-01-2014,19:00,0.83885,R,ugm-3,0.80,R,ugm-3,0.40,R,ugm-3
12-01-2014,20:00,2.58373,R,ugm-3,1.00,R,ugm-3,1.80,R,ugm-3
12-01-2014,21:00,3.42325,R,ugm-3,1.60,R,ugm-3,1.90,R,ugm-3
12-01-2014,22:00,15.82504,R,ugm-3,5.60,R,ugm-3,8.60,R,ugm-3
12-01-2014,23:00,8.84882,R,ugm-3,2.10,R,ugm-3,2.80,R,ugm-3
12-01-2014,24:00,5.94246,R,ugm-3,1.10,R,ugm-3,1.50,R,ugm-3
13-01-2014,01:00,5.85043,R,ugm-3,0.70,R,ugm-3,1.60,R,ugm-3
13-01-2014,02:00,3.87161,R,ugm-3,0.40,R,ugm-3,0.80,R,ugm-3
13-01-2014,03:00,3.41992,R,ugm-3,0.60,R,ugm-3,0.30,R,ugm-3
13-01-2014,04:00,2.90371,R,ugm-3,0.30,R,ugm-3,0.30,R,ugm-3
13-01-2014,05:00,2.64560,R,ugm-3,0.40,R,ugm-3,0.40,R,ugm-3
13-01-2014,06:00,5.54931,R,ugm-3,0.70,R,ugm-3,0.40,R,ugm-3
13-01-2014,07:00,6.45268,R,ugm-3,0.90,R,ugm-3,0.30,R,ugm-3
13-01-2014,08:00,8.45301,R,ugm-3,3.40,R,ugm-3,0.60,R,ugm-3
13-01-2014,09:00,7.54964,R,ugm-3,4.10,R,ugm-3,2.20,R,ugm-3
13-01-2014,10:00,3.41992,R,ugm-3,2.70,R,ugm-3,0.50,R,ugm-3
13-01-2014,11:00,4.25877,R,ugm-3,0.90,R,ugm-3,0.50,R,ugm-3
13-01-2014,12:00,4.96857,R,ugm-3,1.00,R,ugm-3,0.20,R,ugm-3
13-01-2014,13:00,3.16181,R,ugm-3,1.50,R,ugm-3,1.40,R,ugm-3
13-01-2014,14:00,3.61350,R,ugm-3,1.70,R,ugm-3,2.20,R,ugm-3
13-01-2014,15:00,4.32330,R,ugm-3,2.10,R,ugm-3,3.00,R,ugm-3
13-01-2014,16:00,6.06552,R,ugm-3,3.20,R,ugm-3,3.40,R,ugm-3
13-01-2014,17:00,8.96923,R,ugm-3,7.00,R,ugm-3,8.50,R,ugm-3
13-01-2014,18:00,12.51820,R,ugm-3,9.40,R,ugm-3,4.40,R,ugm-3
13-01-2014,19:00,16.26076,R,ugm-3,11.80,R,ugm-3,11.50,R,ugm-3
13-01-2014,20:00,24.84283,R,ugm-3,13.10,R,ugm-3,10.40,R,ugm-3
13-01-2014,21:00,21.03575,R,ugm-3,16.10,R,ugm-3,13.00,R,ugm-3
13-01-2014,22:00,29.42423,R,ugm-3,9.40,R,ugm-3,8.80,R,ugm-3
13-01-2014,23:00,8.32396,R,ugm-3,9.40,R,ugm-3,6.60,R,ugm-3
13-01-2014,24:00,10.25977,R,ugm-3,9.10,R,ugm-3,7.40,R,ugm-3
14-01-2014,01:00,12.56122,R,ugm-3,5.50,R,ugm-3,4.30,R,ugm-3
14-01-2014,02:00,3.44143,R,ugm-3,7.10,R,ugm-3,5.70,R,ugm-3
14-01-2014,03:00,0.90338,R,ugm-3,6.30,R,ugm-3,5.00,R,ugm-3
14-01-2014,04:00,4.90404,R,ugm-3,4.50,R,ugm-3,4.40,R,ugm-3
14-01-2014,05:00,1.61317,R,ugm-3,4.10,R,ugm-3,3.30,R,ugm-3
14-01-2014,06:00,2.45202,R,ugm-3,2.10,R,ugm-3,1.60,R,ugm-3
14-01-2014,07:00,2.38749,R,ugm-3,1.30,R,ugm-3,1.10,R,ugm-3
14-01-2014,08:00,2.25844,R,ugm-3,2.00,R,ugm-3,0.40,R,ugm-3
14-01-2014,09:00,2.06486,R,ugm-3,3.80,R,ugm-3,2.20,R,ugm-3
14-01-2014,10:00,1.09696,R,ugm-3,3.30,R,ugm-3,1.20,R,ugm-3
14-01-2014,11:00,1.16148,R,ugm-3,2.90,R,ugm-3,0.90,R,ugm-3
14-01-2014,12:00,1.29054,R,ugm-3,5.70,R,ugm-3,1.80,R,ugm-3
14-01-2014,13:00,3.54898,R,ugm-3,5.40,R,ugm-3,1.50,R,ugm-3
14-01-2014,14:00,4.71046,R,ugm-3,2.10,R,ugm-3,1.30,R,ugm-3
14-01-2014,15:00,4.19424,R,ugm-3,1.90,R,ugm-3,1.00,R,ugm-3
14-01-2014,16:00,3.67803,R,ugm-3,1.10,R,ugm-3,0.40,R,ugm-3
14-01-2014,17:00,3.41992,R,ugm-3,1.60,R,ugm-3,0.60,R,ugm-3
14-01-2014,18:00,3.74256,R,ugm-3,2.90,R,ugm-3,0.80,R,ugm-3
14-01-2014,19:00,5.03309,R,ugm-3,1.90,R,ugm-3,2.40,R,ugm-3
14-01-2014,20:00,4.96857,R,ugm-3,1.80,R,ugm-3,2.20,R,ugm-3
14-01-2014,21:00,5.09762,R,ugm-3,3.20,R,ugm-3,2.60,R,ugm-3
14-01-2014,22:00,5.54931,R,ugm-3,3.90,R,ugm-3,2.50,R,ugm-3
14-01-2014,23:00,7.16248,R,ugm-3,2.70,R,ugm-3,1.20,R,ugm-3
14-01-2014,24:00,8.06585,R,ugm-3,2.00,R,ugm-3,2.00,R,ugm-3
15-01-2014,01:00,7.99246,R,ugm-3,1.50,R,ugm-3,5.20,R,ugm-3
15-01-2014,02:00,5.07079,R,ugm-3,0.40,R,ugm-3,1.20,R,ugm-3
15-01-2014,03:00,4.25411,R,ugm-3,0.50,R,ugm-3,0.20,R,ugm-3
15-01-2014,04:00,4.76966,R,ugm-3,0.20,R,ugm-3,0.10,R,ugm-3
15-01-2014,05:00,4.31798,R,ugm-3,0.10,R,ugm-3,0.10,R,ugm-3
15-01-2014,06:00,3.80442,R,ugm-3,0.30,R,ugm-3,0.10,R,ugm-3
15-01-2014,07:00,5.35041,R,ugm-3,0.40,R,ugm-3,0.30,R,ugm-3
15-01-2014,08:00,4.96324,R,ugm-3,1.40,R,ugm-3,0.20,R,ugm-3
15-01-2014,09:00,4.96324,R,ugm-3,0.90,R,ugm-3,0.00,R,ugm-3
15-01-2014,10:00,5.22135,R,ugm-3,0.90,R,ugm-3,0.40,R,ugm-3
15-01-2014,11:00,6.18792,R,ugm-3,1.00,R,ugm-3,0.70,R,ugm-3
15-01-2014,12:00,5.86595,R,ugm-3,1.10,R,ugm-3,2.70,R,ugm-3
15-01-2014,13:00,4.38317,R,ugm-3,1.20,R,ugm-3,1.80,R,ugm-3
15-01-2014,14:00,3.61018,R,ugm-3,3.20,R,ugm-3,2.80,R,ugm-3
15-01-2014,15:00,4.57675,R,ugm-3,2.70,R,ugm-3,1.40,R,ugm-3
15-01-2014,16:00,3.35273,R,ugm-3,2.00,R,ugm-3,1.80,R,ugm-3
15-01-2014,17:00,4.51222,R,ugm-3,1.80,R,ugm-3,2.40,R,ugm-3
15-01-2014,18:00,10.37884,R,ugm-3,6.30,R,ugm-3,2.00,R,ugm-3
15-01-2014,19:00,8.44370,R,ugm-3,4.20,R,ugm-3,2.30,R,ugm-3
15-01-2014,20:00,6.31698,R,ugm-3,3.40,R,ugm-3,1.60,R,ugm-3
15-01-2014,21:00,7.28421,R,ugm-3,1.80,R,ugm-3,0.90,R,ugm-3
15-01-2014,22:00,3.35207,R,ugm-3,2.30,R,ugm-3,1.20,R,ugm-3
15-01-2014,23:00,4.44769,R,ugm-3,2.00,R,ugm-3,1.00,R,ugm-3
15-01-2014,24:00,3.48179,R,ugm-3,1.50,R,ugm-3,1.80,R,ugm-3
16-01-2014,01:00,1.89013,R,ugm-3,1.00,R,ugm-3,1.00,R,ugm-3
16-01-2014,02:00,1.37391,R,ugm-3,0.60,R,ugm-3,0.60,R,ugm-3
16-01-2014,03:00,1.61051,R,ugm-3,0.70,R,ugm-3,0.30,R,ugm-3
16-01-2014,04:00,0.70980,R,ugm-3,0.50,R,ugm-3,0.30,R,ugm-3
16-01-2014,05:00,0.58074,R,ugm-3,0.40,R,ugm-3,0.20,R,ugm-3
16-01-2014,06:00,0.32263,R,ugm-3,0.50,R,ugm-3,0.20,R,ugm-3
16-01-2014,07:00,0.32263,R,ugm-3,0.70,R,ugm-3,0.20,R,ugm-3
16-01-2014,08:00,0.45169,R,ugm-3,1.20,R,ugm-3,0.10,R,ugm-3
16-01-2014,09:00,0.64527,R,ugm-3,1.70,R,ugm-3,0.10,R,ugm-3
16-01-2014,10:00,0.64527,R,ugm-3,1.60,R,ugm-3,0.10,R,ugm-3
16-01-2014,11:00,0.51622,R,ugm-3,1.30,R,ugm-3,0.40,R,ugm-3
16-01-2014,12:00,0.51622,R,ugm-3,1.10,R,ugm-3,0.20,R,ugm-3
16-01-2014,13:00,0.64527,R,ugm-3,0.90,R,ugm-3,0.00,R,ugm-3
16-01-2014,14:00,0.51622,R,ugm-3,1.10,R,ugm-3,0.10,R,ugm-3
16-01-2014,15:00,0.38716,R,ugm-3,1.10,R,ugm-3,0.10,R,ugm-3
16-01-2014,16:00,0.58074,R,ugm-3,1.70,R,ugm-3,0.40,R,ugm-3
16-01-2014,17:00,0.25811,R,ugm-3,1.60,R,ugm-3,0.20,R,ugm-3
16-01-2014,18:00,2.77133,R,ugm-3,3.20,R,ugm-3,0.50,R,ugm-3
16-01-2014,19:00,0.70980,R,ugm-3,2.10,R,ugm-3,0.30,R,ugm-3
16-01-2014,20:00,0.70980,R,ugm-3,1.10,R,ugm-3,0.50,R,ugm-3
16-01-2014,21:00,0.45169,R,ugm-3,0.80,R,ugm-3,0.50,R,ugm-3
16-01-2014,22:00,0.45169,R,ugm-3,0.80,R,ugm-3,0.20,R,ugm-3
16-01-2014,23:00,0.06453,R,ugm-3,0.70,R,ugm-3,0.30,R,ugm-3
16-01-2014,24:00,0.06453,R,ugm-3,0.50,R,ugm-3,0.30,R,ugm-3
17-01-2014,01:00,0.25811,R,ugm-3,0.70,R,ugm-3,0.40,R,ugm-3
17-01-2014,02:00,0.85858,R,ugm-3,0.60,R,ugm-3,0.50,R,ugm-3
17-01-2014,03:00,0.70847,R,ugm-3,0.40,R,ugm-3,0.30,R,ugm-3
17-01-2014,04:00,1.48079,R,ugm-3,0.30,R,ugm-3,0.30,R,ugm-3
17-01-2014,05:00,2.25312,R,ugm-3,0.50,R,ugm-3,0.80,R,ugm-3
17-01-2014,06:00,0.90072,R,ugm-3,1.10,R,ugm-3,0.50,R,ugm-3
17-01-2014,07:00,2.25378,R,ugm-3,1.20,R,ugm-3,0.40,R,ugm-3
17-01-2014,08:00,1.80343,R,ugm-3,1.70,R,ugm-3,0.30,R,ugm-3
17-01-2014,09:00,4.44370,R,ugm-3,5.00,R,ugm-3,1.20,R,ugm-3
17-01-2014,10:00,2.51056,R,ugm-3,4.30,R,ugm-3,1.60,R,ugm-3
17-01-2014,11:00,2.76933,R,ugm-3,2.50,R,ugm-3,0.60,R,ugm-3
17-01-2014,12:00,7.59887,R,ugm-3,5.70,R,ugm-3,3.80,R,ugm-3
17-01-2014,13:00,5.21536,R,ugm-3,3.50,R,ugm-3,1.70,R,ugm-3
17-01-2014,14:00,6.76135,R,ugm-3,5.60,R,ugm-3,2.10,R,ugm-3
17-01-2014,15:00,8.17828,R,ugm-3,2.90,R,ugm-3,1.20,R,ugm-3
17-01-2014,16:00,10.94694,R,ugm-3,4.00,R,ugm-3,1.00,R,ugm-3
17-01-2014,17:00,13.90986,R,ugm-3,4.70,R,ugm-3,0.80,R,ugm-3